This demonstration page uses our WeatherBlox Daily Observations layout. Learn more.

Left ArrowRight Arrow

Hourly Observations for February 20, 2018

Temp ( °F °C ) Dew Point ( °F °C ) Humidity (%) Winds ( mph kmh ) Pressure ( in mb ) Visibility ( mi km ) Precip ( " mm )
12:08 am 00:08 Cloudy with Light Snow 21 -6.1 19 -7.2 92 92 N 10 17 29.94 1014 3 5 0.00 0.03
12:13 am 00:13 Cloudy with Light Snow 21 -6.1 19 -7.2 92 92 N 8 13 29.97 1015 6 10 0.00 0.03
12:32 am 00:32 Cloudy with Light Snow 21 -6.1 19 -7.2 92 92 NNW 13 20 29.97 1015 7 11 0.00 0.03
12:54 am 00:54 Cloudy with Light Snow 21 -6.1 19 -7.2 92 92 NNW 12 19 29.92 1013 7 11 0.00 0.03
1:54 am 01:54 Cloudy with Light Snow 21 -6.1 19 -7.2 92 92 NNW 13 20 29.96 1015 3 5 0.00 0.03
2:24 am 02:24 Cloudy with Mist and Fog 21 -6.1 18 -7.8 88 88 NNW 13 20 30.00 1016 5 8 0.00 0.03
2:54 am 02:54 Cloudy with Light Snow 20 -6.7 18 -7.8 92 92 NNW 12 19 29.96 1015 3 5 0.00 0.03
3:01 am 03:01 Cloudy with Light Snow 20 -6.7 18 -7.8 92 92 NNW 14 22 30.00 1016 4 6 0.00 0.03
3:24 am 03:24 Cloudy with Mist and Fog 20 -6.7 17 -8.3 89 89 N 14 22 30.00 1016 4 6 0.00 0.03
3:46 am 03:46 Cloudy with Light Snow 20 -6.7 17 -8.3 89 89 NNW 13 20 30.00 1016 5 8 0.00 0.03
3:54 am 03:54 Cloudy with Light Snow 20 -6.7 17 -8.3 89 89 NNW 14 22 29.97 1015 6 10 0.00 0.03
4:31 am 04:31 Cloudy with Light Snow 19 -7.2 16 -8.9 88 88 NNW 14 22 30.03 1017 5 8 0.00 0.03
4:54 am 04:54 Cloudy with Mist and Fog 19 -7.2 16 -8.9 88 88 NNW 14 22 30.01 1016 5 8 0.00 0.03
5:50 am 05:50 Cloudy with Light Snow 18 -8 12 -11 79 79 NNW 14 22 30.12 1020 9 14 0.00 0.03
5:54 am 05:54 Cloudy with Light Snow 18 -7.8 13 -10.6 81 81 NW 16 26 30.03 1017 9 14 0.00 0.03
6:07 am 06:07 Cloudy with Light Snow 17 -8.3 12 -11.1 80 80 NW 13 20 30.09 1019 9 14 0.00 0.03
6:54 am 06:54 Cloudy with Light Snow 17 -8.3 11 -11.7 77 77 NW 16 26 30.07 1018 9 14 0.00 0.03
7:35 am 07:35 Cloudy with Light Snow 16 -8.9 10 -12.2 77 77 NW 17 28 30.15 1021 9 14 0.00 0.03
7:54 am 07:54 Mostly Cloudy with Light Snow 15 -9.4 9 -12.8 77 77 NNW 18 30 30.11 1020 9 14 0.00 0.03
8:03 am 08:03 Mostly Cloudy 15 -9.4 8 -13.3 74 74 NW 18 30 30.18 1022 9 14 0.00 0.03
8:47 am 08:47 Mostly Cloudy 15 -9.4 9 -12.8 77 77 NW 16 26 30.21 1023 10 16 0.00 0.03
8:54 am 08:54 Cloudy 14 -10 7 -13.9 73 73 NW 17 28 30.16 1021 10 16 0.00 0.03
9:27 am 09:27 Mostly Cloudy 16 -8.9 8 -13.3 71 71 NNW 17 28 30.21 1023 10 16 0.00 0.00
9:54 am 09:54 Mostly Cloudy 16 -8.9 8 -13.3 71 71 NNW 23 37 30.17 1022 10 16 0.00 0.00
10:54 am 10:54 Mostly Sunny 16 -8.9 8 -13.3 71 71 NW 20 31 30.19 1022 10 16 0.00 0.00
11:54 am 11:54 Partly Cloudy 19 -7.2 10 -12.2 68 68 NNW 22 35 30.20 1023 10 16 0.00 0.00
12:03 pm 12:03 Mostly Cloudy 18 -7.8 10 -12.2 71 71 NNW 18 30 30.27 1025 10 16 0.00 0.00
12:54 pm 12:54 Mostly Cloudy 20 -6.7 11 -11.7 68 68 NW 14 22 30.24 1024 10 16 0.00 0.00
1:54 pm 13:54 Mostly Cloudy 21 -6.1 12 -11.1 68 68 NNW 15 24 30.23 1024 10 16 0.00 0.00
2:54 pm 14:54 Mostly Cloudy 20 -6.7 10 -12.2 65 65 NNW 18 30 30.26 1025 10 16 0.00 0.00
3:54 pm 15:54 Mostly Cloudy 21 -6.1 10 -12.2 62 62 NNW 17 28 30.30 1026 10 16 0.00 0.00
4:54 pm 16:54 Mostly Cloudy 20 -6.7 9 -12.8 62 62 N 20 31 30.32 1027 10 16 0.00 0.00
5:54 pm 17:54 Partly Cloudy 19 -7.2 9 -12.8 65 65 N 17 28 30.37 1028 10 16 0.00 0.00
6:54 pm 18:54 Clear 17 -8.3 8 -13.3 68 68 NNW 17 28 30.40 1029 10 16 0.00 0.00
7:54 pm 19:54 Clear 16 -8.9 8 -13.3 71 71 NNW 14 22 30.42 1030 10 16 0.00 0.00
8:54 pm 20:54 Clear 15 -9.4 7 -13.9 70 70 NNW 16 26 30.45 1031 10 16 0.00 0.00
9:54 pm 21:54 Clear 13 -10.6 4 -15.6 67 67 NNW 17 28 30.50 1033 10 16 0.00 0.00
10:54 pm 22:54 Clear 12 -11.1 4 -15.6 70 70 NNW 9 15 30.53 1034 10 16 0.00 0.00
11:54 pm 23:54 Clear 10 -12.2 4 -15.6 76 76 N 8 13 30.55 1034 10 16 0.00 0.00

Powered by AerisWeather